Location: Unspecified
(0.0000°N, 0.0000°E)
Time: 11:54:26
(UTC+00:00)

KKS-1 - Pass Details

Date: 14 December 2017
Orbit: 638 x 649 km, 98.4° (Epoch: 24 June)

Event Time Altitude Azimuth Distance (km) Brightness Sun altitude
Rises 05:17:13 0° 179° (S) 2,965 ? -8.6°
Reaches altitude 10° 05:19:30 10° 185° (S) 2,053 ? -8.1°
Maximum altitude 05:23:47 46° 258° (WSW) 875 ? -7.1°
Drops below altitude 10° 05:28:03 10° 331° (NNW) 2,042 ? -6.1°
Sets 05:30:19 0° 337° (NNW) 2,948 ? -5.6°
